{"data":{"norad_id":58272,"intl_designator":"2023-174S","name":"TIGER-6","alt_names":[],"object_type":"PAYLOAD","status":"ACTIVE","operator":null,"country":"RWA","launch_date":"2023-11-11","launch_site_code":"AFWTR","launch_vehicle":null,"mission":null,"orbit_class":"UNKNOWN","rcs_meters":null,"size_class":null,"mass_kg":null,"dimensions":null,"purposes":[],"wikipedia_slug":null,"has_3d_model":false,"image_url":null,"decayed_at":null,"tle_current":{"epoch":"2026-06-02T22:21:57.441312Z","epoch_age_seconds":9706007,"freshness":"OLD","line1":"1 58272U 23174S   26153.93191483  .03113610  24387-5  11405-2 0  9993","line2":"2 58272  97.3622 253.7995 0013128 263.9798  95.9997 16.24469137144138","mean_motion":16.24469137,"eccentricity":0.0013128,"inclination_deg":97.3622,"raan_deg":253.7995,"arg_perigee_deg":263.9798,"mean_anomaly_deg":95.9997,"bstar":0.0011405,"rev_number":14413,"period_min":88.644343385885,"perigee_km":198.80000055937,"apogee_km":216.09110611141,"semimajor_km":6585.5825533354,"source":"CELESTRAK","updated_at":"2026-06-03T09:00:36.841632Z"}}}